EW9434 Weather Reports


time (UTC)temp
C
wind
direction
speed
KPH
gust
KPH
rain 1hr
cm
rain 24hr
cm
rain mn
cm
humidity
%
barometer
mb
20260504214720 23 97 4.8 16.1 0.00 0.00 0.00 47 1005.7
20260504214516 22 191 3.2 16.1 0.00 0.00 0.00 49 1005.6
20260504214218 23 200 8.0 16.1 0.00 0.00 0.00 49 1006.0
20260504213651 23 193 8.0 22.5 0.00 0.00 0.00 47 1005.9
20260504213123 23 158 8.0 22.5 0.00 0.00 0.00 48 1006.0
20260504213031 23 163 6.4 19.3 0.00 0.00 0.00 47 1005.9
20260504212621 23 132 8.0 19.3 0.00 0.00 0.00 47 1006.1
20260504212057 23 186 6.4 17.7 0.00 0.00 0.00 50 1006.1
20260504211544 23 99 8.0 17.7 0.00 0.00 0.00 48 1006.0
20260504211527 23 142 8.0 17.7 0.00 0.00 0.00 48 1006.2
20260504211027 23 138 6.4 22.5 0.00 0.00 0.00 49 1006.2
20260504210501 23 87 8.0 22.5 0.00 0.00 0.00 52 1006.3
20260504210020 23 179 6.4 27.4 0.00 0.00 0.00 50 1006.3
20260504205934 23 202 9.7 29.0 0.00 0.00 0.00 50 1006.5
20260504205428 23 136 8.0 29.0 0.00 0.00 0.00 50 1006.5
20260504204929 23 121 8.0 25.7 0.00 0.00 0.00 51 1006.5
20260504204621 23 164 8.0 25.7 0.00 0.00 0.00 50 1006.6
20260504204607 22 185 6.4 25.7 0.00 0.00 0.00 51 1006.4
20260504203835 22 135 9.7 25.7 0.00 0.00 0.00 51 1006.7
20260504203533 23 133 11.3 25.7 0.00 0.00 0.00 51 1006.8
20260504203136 22 208 9.7 25.7 0.00 0.00 0.00 50 1006.8
20260504202805 22 201 11.3 29.0 0.00 0.00 0.00 51 1007.0
20260504202239 22 131 11.3 29.0 0.00 0.00 0.00 50 1006.9
20260504201737 22 144 9.7 24.1 0.00 0.00 0.00 50 1006.9
20260504201554 22 118 8.0 22.5 0.00 0.00 0.00 50 1006.7
20260504201434 23 229 9.7 24.1 0.00 0.00 0.00 49 1006.9
20260504200706 23 86 8.0 20.9 0.00 0.00 0.00 50 1006.9
20260504200140 23 7 9.7 22.5 0.00 0.00 0.00 52 1006.9
20260504200047 22 101 6.4 22.5 0.00 0.00 0.00 54 1006.7
20260504195635 22 113 9.7 22.5 0.00 0.00 0.00 52 1007.0
20260504195108 22 147 9.7 29.0 0.00 0.00 0.00 58 1007.0
20260504194606 21 154 9.7 29.0 0.00 0.00 0.00 56 1007.2
20260504194514 21 166 11.3 29.0 0.00 0.00 0.00 55 1007.1
20260504194106 21 106 8.0 19.3 0.00 0.00 0.00 56 1007.3
20260504193550 21 120 6.4 19.3 0.00 0.00 0.00 58 1007.5
20260504193055 21 102 6.4 12.9 0.00 0.00 0.00 60 1007.6
20260504193022 20 155 6.4 14.5 0.00 0.00 0.00 60 1007.5
20260504192526 20 151 6.4 14.5 0.00 0.00 0.00 60 1007.6
20260504192021 20 124 4.8 12.9 0.00 0.00 0.00 63 1007.6
20260504191723 20 111 3.2 8.0 0.00 0.00 0.00 63 1007.9
20260504191537 19 116 3.2 11.3 0.00 0.00 0.00 63 1007.6
20260504191217 19 166 4.8 12.9 0.00 0.00 0.00 67 1008.2
20260504190452 19 140 6.4 11.3 0.00 0.00 0.00 64 1008.1
20260504190002 19 38 4.8 14.5 0.00 0.00 0.00 63 1007.8
20260504185917 20 86 6.4 16.1 0.00 0.00 0.00 63 1007.9
20260504185412 20 130 8.0 16.1 0.00 0.00 0.00 61 1008.3
20260504184913 20 185 8.0 16.1 0.00 0.00 0.00 60 1008.5
20260504184604 20 138 8.0 16.1 0.00 0.00 0.00 59 1008.4
20260504184511 20 135 9.7 16.1 0.00 0.00 0.00 60 1008.5
20260504183841 20 117 9.7 24.1 0.00 0.00 0.00 59 1008.2
20260504183312 20 102 11.3 32.2 0.00 0.00 0.00 58 1008.2
20260504183003 20 86 12.9 32.2 0.00 0.00 0.00 58 1008.1
20260504182813 20 115 11.3 27.4 0.00 0.00 0.00 59 1008.1
20260504182527 20 114 11.3 27.4 0.00 0.00 0.00 58 1008.1
20260504181801 21 78 9.7 25.7 0.00 0.00 0.00 56 1007.8
20260504181535 21 124 8.0 20.9 0.00 0.00 0.00 57 1007.8
20260504181257 21 159 8.0 17.7 0.00 0.00 0.00 56 1007.8
20260504180755 21 157 9.7 24.1 0.00 0.00 0.00 58 1007.6
20260504180231 21 119 11.3 30.6 0.00 0.00 0.00 56 1007.5
20260504180056 21 160 9.7 29.0 0.00 0.00 0.00 56 1007.5
20260504175703 21 112 11.3 30.6 0.00 0.00 0.00 56 1007.4
20260504175137 21 134 9.7 22.5 0.00 0.00 0.00 57 1007.4
20260504174612 21 130 8.0 22.5 0.00 0.00 0.00 57 1007.2
20260504174546 21 72 6.4 22.5 0.00 0.00 0.00 60 1007.2
20260504174335 21 105 8.0 17.7 0.00 0.00 0.00 58 1007.3
20260504173604 21 121 8.0 20.9 0.00 0.00 0.00 59 1007.2
20260504173044 20 170 8.0 20.9 0.00 0.00 0.00 60 1007.4
20260504173013 20 156 9.7 20.9 0.00 0.00 0.00 60 1007.4
20260504172543 20 64 9.7 20.9 0.00 0.00 0.00 60 1007.6
20260504172307 20 103 9.7 22.5 0.00 0.00 0.00 61 1007.6
20260504171544 20 109 8.0 19.3 0.00 0.00 0.00 62 1007.5
20260504171511 20 107 4.8 17.7 0.00 0.00 0.00 61 1007.6
20260504171015 20 112 6.4 16.1 0.00 0.00 0.00 60 1007.4
20260504170503 20 116 8.0 19.3 0.00 0.00 0.00 60 1007.5
20260504160217 18 97 3.2 11.3 0.00 0.00 0.00 64 1008.2
20260504150943 17 149 4.8 16.1 0.00 0.00 0.00 64 1008.4
20260504150441 17 119 4.8 16.1 0.00 0.00 0.00 66 1008.5
20260504150106 17 119 3.2 8.0 0.00 0.00 0.00 65 1008.6
20260504141329 16 72 8.0 19.3 0.00 0.00 0.00 66 1008.5
20260504140805 15 145 8.0 22.5 0.00 0.00 0.00 66 1008.7
20260504140308 15 89 8.0 22.5 0.00 0.00 0.00 65 1008.9
20260504130321 13 273 6.4 20.9 0.00 0.00 0.00 69 1008.9
20260504110339 11 286 3.2 14.5 0.00 0.00 0.00 68 1008.9
20260504100159 11 285 1.6 6.4 0.00 0.00 0.00 66 1009.3
20260504090136 11 284 1.6 6.4 0.00 0.00 0.00 63 1009.7
20260504081728 11 285 3.2 11.3 0.00 0.00 0.00 62 1009.8
20260504081501 11 285 3.2 9.7 0.00 0.00 0.00 62 1010.2
20260504081202 11 284 1.6 9.7 0.00 0.00 0.00 62 1009.9
20260504080858 11 284 1.6 11.3 0.00 0.00 0.00 61 1009.9
20260504080353 11 284 3.2 11.3 0.00 0.00 0.00 61 1009.9
20260504060210 11 284 1.6 8.0 0.00 0.00 0.00 60 1011.0
20260504050326 11 285 1.6 6.4 0.00 0.00 0.00 60 1011.5
20260504045802 12 285 1.6 6.4 0.00 0.00 0.00 59 1011.5
20260504045514 12 285 1.6 6.4 0.00 0.00 0.00 59 1011.5
20260504044756 12 284 1.6 6.4 0.00 0.00 0.00 59 1011.6
20260504044523 11 284 1.6 6.4 0.00 0.00 0.00 59 1012.1
20260504044245 12 285 1.6 6.4 0.00 0.00 0.00 59 1011.6
20260504043716 12 285 1.6 6.4 0.00 0.00 0.00 58 1011.7
20260504043215 12 285 1.6 6.4 0.00 0.00 0.00 58 1011.7
20260504043135 12 285 1.6 8.0 0.00 0.00 0.00 58 1011.7
20260504043035 12 285 1.6 6.4 0.00 0.00 0.00 58 1012.2
20260504042140 12 285 1.6 8.0 0.00 0.00 0.00 58 1011.7
20260504041904 12 285 1.6 6.4 0.00 0.00 0.00 58 1011.8
20260504041619 12 285 0.0 6.4 0.00 0.00 0.00 58 1012.3
20260504041134 12 285 1.6 6.4 0.00 0.00 0.00 58 1011.8
20260504040633 12 288 3.2 8.0 0.00 0.00 0.00 57 1011.9
20260504040111 12 291 3.2 8.0 0.00 0.00 0.00 57 1011.9
20260504040040 12 291 1.6 8.0 0.00 0.00 0.00 57 1012.4
20260504035612 12 273 3.2 8.0 0.00 0.00 0.00 56 1011.9
20260504035329 12 290 3.2 8.0 0.00 0.00 0.00 56 1012.0
20260504034546 12 288 3.2 11.3 0.00 0.00 0.00 55 1012.1
20260504034516 12 287 3.2 9.7 0.00 0.00 0.00 55 1012.6
20260504034035 12 290 3.2 11.3 0.00 0.00 0.00 55 1012.1
20260504033534 12 289 3.2 6.4 0.00 0.00 0.00 54 1012.1
20260504033037 13 290 1.6 6.4 0.00 0.00 0.00 54 1012.2
20260504033007 12 290 1.6 6.4 0.00 0.00 0.00 54 1012.8
20260504032511 13 290 1.6 6.4 0.00 0.00 0.00 54 1012.2
20260504032009 13 291 3.2 9.7 0.00 0.00 0.00 53 1012.1
20260504031534 13 291 3.2 9.7 0.00 0.00 0.00 53 1012.7
20260504031452 13 273 3.2 9.7 0.00 0.00 0.00 53 1012.2
20260504030950 13 273 3.2 9.7 0.00 0.00 0.00 53 1012.2
20260504030420 13 273 3.2 9.7 0.00 0.00 0.00 52 1012.3
20260504030336 13 273 3.2 11.3 0.00 0.00 0.00 52 1012.3
20260504030048 13 273 4.8 8.0 0.00 0.00 0.00 52 1012.8
20260504025338 13 273 4.8 11.3 0.00 0.00 0.00 52 1012.4
20260504024812 13 288 3.2 9.7 0.00 0.00 0.00 52 1012.4
20260504024551 13 287 1.6 8.0 0.00 0.00 0.00 52 1013.0
20260504024247 13 286 3.2 14.5 0.00 0.00 0.00 51 1012.5
20260504023726 13 286 3.2 14.5 0.00 0.00 0.00 51 1012.4
20260504023203 13 286 3.2 8.0 0.00 0.00 0.00 51 1012.3
20260504023026 13 285 1.6 8.0 0.00 0.00 0.00 51 1013.0
20260504022657 13 285 3.2 8.0 0.00 0.00 0.00 51 1012.4
20260504022157 13 285 3.2 8.0 0.00 0.00 0.00 51 1012.5
20260504021629 14 286 3.2 9.7 0.00 0.00 0.00 50 1012.4
20260504021518 13 286 1.6 8.0 0.00 0.00 0.00 50 1013.0
20260504021130 14 284 3.2 9.7 0.00 0.00 0.00 50 1012.4
20260504020605 14 285 4.8 12.9 0.00 0.00 0.00 49 1012.4
20260504020124 13 285 4.8 14.5 0.00 0.00 0.00 49 1012.9
20260504020040 14 284 4.8 14.5 0.00 0.00 0.00 49 1012.3
20260504015535 14 286 4.8 14.5 0.00 0.00 0.00 48 1012.3
20260504015036 14 285 6.4 14.5 0.00 0.00 0.00 47 1012.2
20260504014542 14 285 3.2 22.5 0.00 0.00 0.00 46 1012.9
20260504014506 14 285 8.0 22.5 0.00 0.00 0.00 46 1012.3
20260504013941 15 285 8.0 22.5 0.00 0.00 0.00 45 1012.2
20260504013414 15 284 9.7 22.5 0.00 0.00 0.00 44 1012.1
20260504013102 14 285 8.0 22.5 0.00 0.00 0.00 44 1012.7
20260504012908 15 284 8.0 22.5 0.00 0.00 0.00 43 1012.0
20260504012339 15 286 6.4 16.1 0.00 0.00 0.00 43 1012.0
20260504011813 15 286 8.0 24.1 0.00 0.00 0.00 42 1011.9
20260504011528 15 285 4.8 24.1 0.00 0.00 0.00 43 1012.6
20260504011245 15 286 6.4 24.1 0.00 0.00 0.00 42 1012.0
20260504010744 15 286 6.4 20.9 0.00 0.00 0.00 42 1012.0
20260504010215 15 285 6.4 20.9 0.00 0.00 0.00 41 1012.0
20260504010049 15 286 8.0 20.9 0.00 0.00 0.00 42 1012.6
20260504005649 15 285 6.4 16.1 0.00 0.00 0.00 41 1011.9
20260504005123 15 286 8.0 17.7 0.00 0.00 0.00 41 1012.0
20260504004556 15 285 8.0 19.3 0.00 0.00 0.00 41 1012.0
20260504004525 15 284 6.4 17.7 0.00 0.00 0.00 41 1012.6
20260504004052 15 286 8.0 19.3 0.00 0.00 0.00 41 1012.1
20260504003549 15 286 8.0 20.9 0.00 0.00 0.00 41 1012.0
20260504003240 15 285 4.8 20.9 0.00 0.00 0.00 41 1012.0
20260504003102 15 286 9.7 20.9 0.00 0.00 0.00 41 1012.6
20260504002457 15 286 4.8 17.7 0.00 0.00 0.00 41 1012.0
20260504001929 15 287 6.4 24.1 0.00 0.00 0.00 41 1012.1
20260504001554 15 286 8.0 24.1 0.00 0.00 0.00 40 1012.7
20260504001405 15 286 8.0 24.1 0.00 0.00 0.00 41 1012.0
20260504000838 15 286 8.0 19.3 0.00 0.00 0.00 40 1011.9
20260504000311 15 287 8.0 19.3 0.00 0.00 0.00 40 1011.8
20260504000021 15 286 6.4 19.3 0.00 0.00 0.00 41 1012.4
20260504000010 15 286 6.4 17.7 0.00 0.00 0.00 40 1011.8
20260503235244 15 288 6.4 17.7 0.00 0.00 0.00 39 1011.8
20260503234713 15 286 8.0 17.7 0.00 0.00 0.00 40 1011.8
20260503234511 15 286 6.4 17.7 0.00 0.00 0.00 39 1012.4
20260503234212 15 286 6.4 17.7 0.00 0.00 0.00 40 1011.7
20260503234132 15 287 6.4 17.7 0.00 0.00 0.00 40 1011.7
20260503233345 15 286 6.4 17.7 0.00 0.00 0.00 40 1011.8
20260503233048 15 286 4.8 17.7 0.00 0.00 0.00 40 1012.5
20260503232551 15 286 6.4 17.7 0.00 0.00 0.00 40 1012.0
20260503232309 15 290 6.4 14.5 0.00 0.00 0.00 40 1012.0
20260503231539 15 288 3.2 14.5 0.00 0.00 0.00 40 1012.8
20260503231521 15 289 6.4 16.1 0.00 0.00 0.00 40 1012.2
20260503231020 15 288 6.4 17.7 0.00 0.00 0.00 39 1012.3
20260503230451 15 289 6.4 17.7 0.00 0.00 0.00 39 1012.4
20260503230040 15 285 6.4 19.3 0.00 0.00 0.00 39 1013.2
20260503225950 15 286 8.0 19.3 0.00 0.00 0.00 39 1012.6
20260503225715 15 286 9.7 19.3 0.00 0.00 0.00 38 1012.7
20260503224944 15 285 8.0 19.3 0.00 0.00 0.00 38 1012.8
20260503224707 15 285 8.0 19.3 0.00 0.00 0.00 39 1012.8
20260503224615 15 286 9.7 19.3 0.00 0.00 0.00 38 1013.5
20260503223943 15 286 8.0 22.5 0.00 0.00 0.00 38 1013.0
20260503223443 15 285 9.7 22.5 0.00 0.00 0.00 38 1013.1
20260503223211 15 286 8.0 20.9 0.00 0.00 0.00 38 1013.2
20260503223023 15 286 11.3 22.5 0.00 0.00 0.00 38 1013.7
20260503222416 15 286 9.7 25.7 0.00 0.00 0.00 39 1013.3
20260503221915 15 286 11.3 25.7 0.00 0.00 0.00 38 1013.3
20260503221537 15 287 11.3 25.7 0.00 0.00 0.00 37 1014.0
20260503221408 16 288 9.7 25.7 0.00 0.00 0.00 38 1013.5
20260503221308 16 91 6.4 19.3 0.00 0.00 0.00 39 1013.4
20260503220937 16 286 8.0 17.7 0.00 0.00 0.00 39 1013.4
20260503220027 16 189 6.4 19.3 0.00 0.00 0.00 40 1014.1
20260503215837 16 300 6.4 19.3 0.00 0.00 0.00 39 1013.5